Weather History for Mannheim, Germany

Change the Weather History Date:

Thursday, August 22, 2013

  Actual Average (EDDF) Record (EDDF)
Temperature  
Mean Temperature 67 °F -  
Max Temperature 80 °F 75 °F 86 °F (2010)
Min Temperature 54 °F 57 °F 45 °F (2014)
Cooling Degree Days 2    
Growing Degree Days 17 (Base 50)    
Moisture  
Dew Point 50 °F    
Average Humidity 50    
Maximum Humidity 88    
Minimum Humidity 21    
Precipitation  
Precipitation 0.00 in - - ()
Sea Level Pressure  
Sea Level Pressure 30.11 in    
Wind  
Wind Speed 4 mph ()    
Max Wind Speed 8 mph    
Max Gust Speed -    
Visibility 16.5 miles    
Events      
Averages and records for this station are not official NWS values.
T = Trace of Precipitation, MM = Missing Value Source: Averaged Metar Reports

Daily Weather History Graph

Daily Weather History Graph

Search for Another Location

Airport:

Trip Planner

Search our weather history database for the weather conditions in past years. The results will help you decide how hot, cold, wet, or windy it might be!

Date:

Astronomy

Aug. 22, 2013 Rise Set
Actual Time 6:26 AM CEST 8:29 PM CEST
Civil Twilight 5:52 AM CEST 9:03 PM CEST
Nautical Twilight 5:09 AM CEST 9:46 PM CEST
Astronomical Twilight 4:21 AM CEST 10:34 PM CEST
Moon 8:46 PM CEST (8/22) 8:11 AM CEST (8/22)
Length of Visible Light 15h 11m
Length of Day
14h 02m
Full, 98% of the Moon is Illuminated
Aug 22
Full
Aug 28
Last Quarter
Sep 5
New
Sep 12
First Quarter
Sep 19
Full

Hourly Weather History & Observations

Time (CEST) Temp. Dew Point Humidity Pressure Visibility Wind Dir Wind Speed Gust Speed Precip Events Conditions
12:00 AM 57 °F 52 °F 79% 30.19 in 28 mi NE 4.5 mph - -  
2:00 AM 57 °F 52 °F 78% 30.17 in 25 mi ENE 2.2 mph - -  
3:00 AM 57 °F 51 °F 76% 30.17 in 22 mi NW 2.2 mph - -  
5:00 AM 56 °F 50 °F 75% 30.16 in 16 mi North 6.7 mph - -  
5:50 AM 55.4 °F 50.0 °F 82% 30.15 in - Variable 2.3 mph - N/A   Clear
6:00 AM 55 °F 51 °F 80% 30.15 in 16 mi North 4.5 mph - -  
6:20 AM 55.4 °F 50.0 °F 82% 30.15 in - Variable 1.2 mph - N/A   Clear
6:50 AM 55.4 °F 51.8 °F 88% 30.15 in - Variable 2.3 mph - N/A   Clear
7:00 AM 54 °F 51 °F 84% 30.16 in 15 mi North 4.5 mph - -  
7:20 AM 57.2 °F 51.8 °F 82% 30.15 in - Variable 2.3 mph - N/A   Clear
7:50 AM 57.2 °F 51.8 °F 82% 30.15 in - North 3.5 mph - N/A   Clear
8:20 AM 60.8 °F 51.8 °F 72% 30.15 in - Variable 3.5 mph - N/A   Clear
8:50 AM 60.8 °F 51.8 °F 72% 30.15 in - North 4.6 mph - N/A   Clear
9:00 AM 62 °F 53 °F 64% 30.16 in 19 mi NNW 2.2 mph - -  
9:20 AM 64.4 °F 53.6 °F 68% 30.15 in - Variable 3.5 mph - N/A   Clear
9:50 AM 66.2 °F 51.8 °F 60% 30.15 in - Variable 2.3 mph - N/A   Clear
10:00 AM 68 °F 53 °F 49% 30.14 in 25 mi NW 4.5 mph - -  
10:20 AM 68.0 °F 50.0 °F 52% 30.15 in - Variable 1.2 mph - N/A   Clear
10:50 AM 71.6 °F 50.0 °F 46% 30.15 in - Variable 2.3 mph - N/A   Clear
11:00 AM 71 °F 51 °F 37% 30.14 in 28 mi North 2.2 mph - -  
11:20 AM 73.4 °F 50.0 °F 44% 30.12 in - Variable 2.3 mph - N/A   Clear
11:50 AM 73.4 °F 50.0 °F 44% 30.12 in - Variable 3.5 mph - N/A   Clear
12:00 PM 75 °F 48 °F 27% 30.12 in 28 mi ESE 2.2 mph - -  
12:20 PM 73.4 °F 48.2 °F 41% 30.12 in - Variable 3.5 mph - N/A   Clear
12:50 PM 77.0 °F 48.2 °F 36% 30.12 in - East 5.8 mph - N/A   Clear
1:20 PM 75.2 °F 48.2 °F 38% 30.12 in - Variable 5.8 mph - N/A   Clear
1:50 PM 75.2 °F 46.4 °F 36% 30.09 in - ESE 6.9 mph - N/A   Clear
2:20 PM 77.0 °F 46.4 °F 34% 30.09 in - WNW 4.6 mph - N/A   Clear
2:50 PM 78.8 °F 48.2 °F 34% 30.09 in - NNE 5.8 mph - N/A   Clear
3:00 PM 79 °F 51 °F 27% 30.08 in 22 mi East 4.5 mph - -  
3:20 PM 78.8 °F 48.2 °F 34% 30.09 in - Variable 6.9 mph - N/A   Clear
3:50 PM 78.8 °F 48.2 °F 34% 30.06 in - Variable 4.6 mph - N/A   Clear
4:00 PM 78 °F 47 °F 22% 30.07 in 31 mi NE 6.7 mph - -  
4:20 PM 78.8 °F 46.4 °F 32% 30.06 in - Variable 4.6 mph - N/A   Clear
4:50 PM 78.8 °F 48.2 °F 34% 30.06 in - NNE 6.9 mph - N/A   Clear
5:00 PM 79 °F 47 °F 21% 30.06 in 34 mi NE 6.7 mph - -  
5:20 PM 78.8 °F 48.2 °F 34% 30.06 in - ENE 5.8 mph - N/A   Clear
5:50 PM 78.8 °F 48.2 °F 34% 30.06 in - NNE 8.1 mph - N/A   Clear
6:00 PM 79 °F 48 °F 24% 30.05 in 34 mi North 6.7 mph - -  
6:20 PM 78.8 °F 48.2 °F 34% 30.06 in - North 6.9 mph - N/A   Clear
6:50 PM 77.0 °F 48.2 °F 36% 30.04 in - NE 6.9 mph - N/A   Clear
7:00 PM 77 °F 48 °F 25% 30.04 in 34 mi NNE 6.7 mph - -  
7:20 PM 77.0 °F 48.2 °F 36% 30.04 in - ENE 5.8 mph - N/A   Clear
7:50 PM 75.2 °F 50.0 °F 41% 30.06 in - East 5.8 mph - N/A   Clear
8:00 PM 75 °F 48 °F 28% 30.05 in 31 mi East 6.7 mph - -   Overcast
8:20 PM 73.4 °F 50.0 °F 44% 30.06 in - East 5.8 mph - N/A   Clear
8:50 PM 73.4 °F 50.0 °F 44% 30.06 in - East 4.6 mph - N/A   Clear
9:00 PM 69 °F 52 °F 45% 30.05 in 25 mi NE 4.5 mph - -   Overcast
9:20 PM 69.8 °F 51.8 °F 53% 30.06 in - Variable 2.3 mph - N/A   Clear
11:00 PM 66 °F 53 °F 52% 30.06 in 28 mi NNE 4.5 mph - -   Overcast